, OR

(GMT )
Tillamook

Weather History for KTMK - February, 2012

Change the Weather History Date:

Monday, February 13, 2012

  Actual Average Record
Temperature  
Mean Temperature 44 °F -  
Max Temperature 50 °F - - ()
Min Temperature 37 °F - - ()
Degree Days  
Heating Degree Days 22    
Moisture  
Dew Point 41 °F    
Average Humidity 92    
Maximum Humidity 100    
Minimum Humidity 71    
Precipitation  
Precipitation 0.03 in - - ()
Sea Level Pressure  
Sea Level Pressure 30.00 in    
Wind  
Wind Speed 2 mph (NW)    
Max Wind Speed 10 mph    
Max Gust Speed -    
Visibility 10 miles    
Events Rain    
Averages and records for this station are not official NWS values.
T = Trace of Precipitation, MM = Missing Value Source: NWS Daily Summary

Daily Weather History Graph

Daily Weather History Graph

Search for Another Location

Airport or City:

Trip Planner

Search our weather history database for the weather conditions in past years. The results will help you decide how hot, cold, wet, or windy it might be!

Date:

Astronomy

Feb. 13, 2012 Rise Set
Actual Time 8:20 AM MST 6:39 PM MST
Civil Twilight 7:49 AM MST 7:09 PM MST
Nautical Twilight 7:15 AM MST 7:44 PM MST
Astronomical Twilight 6:40 AM MST 8:18 PM MST
Moon 1:04 AM MST (2/13) 11:00 AM MST (2/13)
Length of Visible Light 11h 19m
Length of Day
10h 18m
Waning Gibbous, 61% of the Moon is Illuminated
Feb 13
Waning Gibbous
Feb 14
Last Quarter
Feb 21
New
Feb 29
First Quarter
Mar 8
Full

Hourly Weather History & Observations

Time (MST) Temp. Windchill Dew Point Humidity Pressure Visibility Wind Dir Wind Speed Gust Speed Precip Events Conditions
12:15 AM 41.0 °F 39.0 °F 39.2 °F 93% 29.94 in 10.0 mi ESE 3.5 mph - N/A   Light Drizzle
12:35 AM 41.0 °F - 41.0 °F 100% 29.94 in 10.0 mi Calm Calm - N/A   Light Drizzle
12:55 AM 41.0 °F - 41.0 °F 100% 29.94 in 10.0 mi Calm Calm - N/A   Light Drizzle
1:15 AM 41.0 °F - 39.2 °F 93% 29.94 in 10.0 mi Calm Calm - N/A   Overcast
1:35 AM 42.8 °F - 41.0 °F 93% 29.94 in 10.0 mi Calm Calm - 0.01 in   Drizzle
1:55 AM 41.0 °F - 41.0 °F 100% 29.94 in 10.0 mi Calm Calm - 0.01 in   Drizzle
2:15 AM 41.0 °F - 39.2 °F 93% 29.95 in 10.0 mi Calm Calm - N/A   Drizzle
2:35 AM 41.0 °F - 39.2 °F 93% 29.95 in 10.0 mi Calm Calm - N/A   Light Drizzle
2:55 AM 41.0 °F - 39.2 °F 93% 29.95 in 10.0 mi Calm Calm - N/A   Light Drizzle
3:15 AM 41.0 °F - 41.0 °F 100% 29.96 in 7.0 mi Calm Calm - N/A   Drizzle
3:35 AM 41.0 °F - 41.0 °F 100% 29.96 in 7.0 mi Calm Calm - 0.01 in   Drizzle
3:55 AM 41.0 °F - 41.0 °F 100% 29.96 in 10.0 mi Calm Calm - 0.01 in   Drizzle
4:15 AM 41.0 °F - 41.0 °F 100% 29.96 in 10.0 mi Calm Calm - 0.01 in   Drizzle
4:35 AM 41.0 °F - 41.0 °F 100% 29.96 in 7.0 mi Calm Calm - 0.01 in   Light Drizzle
4:55 AM 41.0 °F - 41.0 °F 100% 29.96 in 10.0 mi Calm Calm - 0.01 in Rain Light Rain
5:15 AM 41.0 °F - 41.0 °F 100% 29.97 in 10.0 mi Calm Calm - N/A   Drizzle
5:35 AM 41.0 °F 39.0 °F 41.0 °F 100% 29.97 in 10.0 mi ENE 3.5 mph - N/A   Light Drizzle
5:55 AM 41.0 °F 39.0 °F 41.0 °F 100% 29.97 in 10.0 mi NE 3.5 mph - N/A   Overcast
6:15 AM 41.0 °F - 41.0 °F 100% 29.97 in 10.0 mi Calm Calm - N/A   Overcast
6:35 AM 41.0 °F 39.0 °F 41.0 °F 100% 29.97 in 10.0 mi NE 3.5 mph - N/A   Overcast
6:55 AM 41.0 °F - 41.0 °F 100% 29.97 in 10.0 mi Calm Calm - N/A   Overcast
7:15 AM 41.0 °F - 41.0 °F 100% 29.97 in 10.0 mi Calm Calm - N/A   Overcast
7:35 AM 41.0 °F - 41.0 °F 100% 29.97 in 10.0 mi Calm Calm - N/A   Overcast
7:55 AM 41.0 °F - 41.0 °F 100% 29.98 in 10.0 mi Calm Calm - N/A   Overcast
8:15 AM 41.0 °F - 41.0 °F 100% 29.98 in 10.0 mi Calm Calm - N/A   Overcast
8:35 AM 41.0 °F - 41.0 °F 100% 29.99 in 10.0 mi Calm Calm - N/A   Overcast
8:55 AM 39.2 °F 37.0 °F 39.2 °F 100% 30.00 in 10.0 mi North 3.5 mph - N/A   Overcast
9:15 AM 37.4 °F - 37.4 °F 100% 30.00 in 10.0 mi Calm Calm - N/A   Scattered Clouds
9:35 AM 37.4 °F - 37.4 °F 100% 30.01 in 7.0 mi Calm Calm - N/A   Clear
10:15 AM 41.0 °F - 41.0 °F 100% 30.03 in 10.0 mi Calm Calm - N/A   Clear
10:35 AM 41.0 °F - 41.0 °F 100% 30.03 in 10.0 mi Calm Calm - N/A   Scattered Clouds
10:55 AM 41.0 °F 38.0 °F 41.0 °F 100% 30.03 in 10.0 mi SE 4.6 mph - N/A   Scattered Clouds
11:15 AM 42.8 °F - 42.8 °F 100% 30.04 in 10.0 mi Calm Calm - N/A   Scattered Clouds
11:35 AM 44.6 °F - 41.0 °F 87% 30.05 in 10.0 mi Calm Calm - N/A   Clear
11:55 AM 44.6 °F - 39.2 °F 81% 30.06 in 10.0 mi Calm Calm - N/A   Mostly Cloudy
12:15 PM 44.6 °F - 39.2 °F 81% 30.06 in 10.0 mi Calm Calm - N/A   Overcast
12:35 PM 46.4 °F - 41.0 °F 81% 30.06 in 10.0 mi Calm Calm - N/A   Overcast
12:55 PM 48.2 °F - 41.0 °F 76% 30.06 in 10.0 mi West 3.5 mph - N/A   Overcast
1:15 PM 48.2 °F - 41.0 °F 76% 30.06 in 10.0 mi Calm Calm - N/A   Overcast
1:35 PM 50.0 °F - 42.8 °F 76% 30.05 in 10.0 mi WNW 8.1 mph - N/A   Overcast
1:55 PM 48.2 °F - 41.0 °F 76% 30.05 in 7.0 mi WNW 4.6 mph - N/A   Overcast
2:15 PM 48.2 °F - 41.0 °F 76% 30.05 in 10.0 mi NW 3.5 mph - N/A   Overcast
2:35 PM 48.2 °F - 41.0 °F 76% 30.05 in 10.0 mi WNW 3.5 mph - N/A   Overcast
3:15 PM 50.0 °F - 41.0 °F 71% 30.06 in 10.0 mi WNW 6.9 mph - N/A   Overcast
3:35 PM 48.2 °F - 42.8 °F 82% 30.06 in 10.0 mi NW 8.1 mph - N/A   Overcast
3:55 PM 48.2 °F - 42.8 °F 82% 30.07 in 10.0 mi NW 10.4 mph - N/A   Overcast
4:15 PM 48.2 °F - 41.0 °F 76% 30.08 in 10.0 mi WNW 9.2 mph - N/A   Overcast
4:35 PM 48.2 °F - 41.0 °F 76% 30.09 in 10.0 mi WNW 10.4 mph - N/A   Overcast
4:55 PM 48.2 °F - 41.0 °F 76% 30.09 in 10.0 mi NW 6.9 mph - N/A   Overcast
5:15 PM 46.4 °F 42.9 °F 41.0 °F 81% 30.09 in 10.0 mi WNW 6.9 mph - N/A   Overcast
5:35 PM 46.4 °F 44.3 °F 41.0 °F 81% 30.09 in 10.0 mi WNW 4.6 mph - N/A   Overcast
5:55 PM 48.2 °F - 41.0 °F 76% 30.09 in 10.0 mi Calm Calm - N/A   Overcast
6:15 PM 46.4 °F 45.2 °F 41.0 °F 81% 30.09 in 10.0 mi West 3.5 mph - N/A   Overcast
6:35 PM 46.4 °F 45.2 °F 41.0 °F 81% 30.10 in 10.0 mi West 3.5 mph - N/A   Overcast
6:55 PM 46.4 °F - 41.0 °F 81% 30.11 in 10.0 mi Calm Calm - N/A   Overcast
7:15 PM 46.4 °F - 41.0 °F 81% 30.10 in 10.0 mi Calm Calm - N/A   Overcast
7:35 PM 46.4 °F - 41.0 °F 81% 30.11 in 10.0 mi Calm Calm - N/A   Overcast
7:55 PM 46.4 °F 44.3 °F 42.8 °F 87% 30.11 in 10.0 mi South 4.6 mph - N/A   Overcast
8:15 PM 44.6 °F - 42.8 °F 93% 30.11 in 10.0 mi Calm Calm - N/A   Overcast
8:35 PM 44.6 °F 43.1 °F 42.8 °F 93% 30.11 in 10.0 mi SSE 3.5 mph - N/A   Overcast
8:55 PM 44.6 °F 42.2 °F 42.8 °F 93% 30.11 in 10.0 mi SSE 4.6 mph - N/A   Overcast
9:15 PM 44.6 °F 43.1 °F 42.8 °F 93% 30.11 in 10.0 mi SE 3.5 mph - N/A   Overcast
9:35 PM 44.6 °F 43.1 °F 42.8 °F 93% 30.10 in 10.0 mi SE 3.5 mph - N/A   Overcast
9:55 PM 44.6 °F 43.1 °F 42.8 °F 93% 30.08 in 10.0 mi ESE 3.5 mph - N/A   Overcast
10:15 PM 42.8 °F 41.1 °F 41.0 °F 93% 30.08 in 10.0 mi South 3.5 mph - N/A   Mostly Cloudy
10:35 PM 41.0 °F 39.0 °F 41.0 °F 100% 30.08 in 10.0 mi WSW 3.5 mph - N/A   Scattered Clouds
11:15 PM 41.0 °F - 41.0 °F 100% 30.09 in 10.0 mi Calm Calm - N/A   Overcast
11:35 PM 42.8 °F - 42.8 °F 100% 30.08 in 10.0 mi Calm Calm - N/A   Overcast
11:55 PM 42.8 °F - 42.8 °F 100% 30.06 in 10.0 mi Calm Calm - N/A   Overcast